Weather History for Staverton, United Kingdom

Change the Weather History Date:

Tuesday, November 20, 2012

  Actual Average Record
Temperature  
Mean Temperature 56 °F -  
Max Temperature 59 °F 46 °F 59 °F (2012)
Min Temperature 53 °F 40 °F 26 °F (2005)
Degree Days  
Heating Degree Days 9    
Growing Degree Days 6 (Base 50)    
Moisture  
Dew Point 52 °F    
Average Humidity 86    
Maximum Humidity 94    
Minimum Humidity 82    
Precipitation  
Precipitation 0.00 in - - ()
Sea Level Pressure  
Sea Level Pressure 29.64 in    
Wind  
Wind Speed 14 mph ()    
Max Wind Speed 22 mph    
Max Gust Speed 33 mph    
Visibility 5.1 miles    
Events Rain    
Averages and records for this station are not official NWS values.
T = Trace of Precipitation, MM = Missing Value Source: Averaged Metar Reports

Daily Weather History Graph

Daily Weather History Graph

Search for Another Location

Airport:

Trip Planner

Search our weather history database for the weather conditions in past years. The results will help you decide how hot, cold, wet, or windy it might be!

Date:

Astronomy

Nov. 20, 2012 Rise Set
Actual Time 7:37 AM GMT 4:11 PM GMT
Civil Twilight 6:59 AM GMT 4:49 PM GMT
Nautical Twilight 6:17 AM GMT 5:30 PM GMT
Astronomical Twilight 5:37 AM GMT 6:10 PM GMT
Moon 12:40 PM GMT (11/20) 11:55 PM GMT (11/20)
Length of Visible Light 9h 50m
Length of Day
8h 33m
Waxing Crescent, 49% of the Moon is Illuminated
Nov 20
Waxing Crescent
Nov 20
First Quarter
Nov 28
Full
Dec 6
Last Quarter
Dec 13
New

Hourly Weather History & Observations

Time (GMT) Temp. Dew Point Humidity Pressure Visibility Wind Dir Wind Speed Gust Speed Precip Events Conditions
6:50 AM 57.2 °F 51.8 °F 82% 29.62 in 4.3 mi South 13.8 mph - N/A Rain Rain
7:20 AM 57.2 °F 51.8 °F 82% 29.62 in 4.3 mi South 18.4 mph - N/A Rain Rain
7:50 AM 57.2 °F 51.8 °F 82% 29.62 in 6.2 mi South 15.0 mph - N/A Rain Light Rain
8:20 AM 57.2 °F 53.6 °F 88% 29.62 in 5.0 mi South 15.0 mph 26.5 mph N/A Rain Light Rain
8:50 AM 57.2 °F 53.6 °F 88% 29.59 in 5.0 mi South 18.4 mph - N/A Rain Light Rain
9:20 AM 57.2 °F 53.6 °F 88% 29.62 in 5.0 mi South 21.9 mph - N/A Rain Light Rain
9:50 AM 57.2 °F 53.6 °F 88% 29.59 in 5.0 mi South 20.7 mph 32.2 mph N/A Rain Rain
10:20 AM 59.0 °F 53.6 °F 82% 29.62 in 5.0 mi South 19.6 mph 33.4 mph N/A Rain Light Rain
10:50 AM 59.0 °F 53.6 °F 82% 29.62 in 5.0 mi South 20.7 mph 32.2 mph N/A Rain Light Rain
11:20 AM 59.0 °F 53.6 °F 82% 29.62 in 5.0 mi South 17.3 mph - N/A Rain Light Rain
11:50 AM 59.0 °F 53.6 °F 82% 29.62 in 5.0 mi South 18.4 mph - N/A Rain Light Rain
12:20 PM 59.0 °F 53.6 °F 82% 29.62 in 6.2 mi South 18.4 mph 29.9 mph N/A   Mostly Cloudy
12:50 PM 59.0 °F 53.6 °F 82% 29.62 in 5.6 mi South 18.4 mph 31.1 mph N/A   Light Drizzle
1:20 PM 57.2 °F 53.6 °F 88% 29.62 in 3.7 mi South 18.4 mph - N/A Rain Rain
1:50 PM 57.2 °F 53.6 °F 88% 29.62 in 5.0 mi South 16.1 mph - N/A Rain Light Rain
2:20 PM 57.2 °F 53.6 °F 88% 29.62 in 3.1 mi South 17.3 mph 29.9 mph N/A Rain Rain
2:50 PM 57.2 °F 53.6 °F 88% 29.62 in 6.2 mi SSW 10.4 mph - N/A   Mostly Cloudy
3:20 PM 57.2 °F 53.6 °F 88% 29.65 in 3.1 mi SSW 12.7 mph - N/A Rain Rain
3:50 PM 55.4 °F 51.8 °F 88% 29.65 in 2.8 mi SW 12.7 mph - N/A Rain Light Rain
4:20 PM 53.6 °F 51.8 °F 94% 29.65 in 6.2 mi SSW 9.2 mph - N/A Rain Light Rain
4:50 PM 53.6 °F 50.0 °F 88% 29.68 in 6.2 mi South 8.1 mph - N/A Rain Light Rain
5:20 PM 53.6 °F 50.0 °F 88% 29.71 in 6.2 mi SSW 8.1 mph - N/A   Mostly Cloudy
5:50 PM 53.6 °F 50.0 °F 88% 29.71 in 6.2 mi SSW 6.9 mph - N/A   Mostly Cloudy
6:20 PM 53.6 °F 48.2 °F 82% 29.71 in 6.2 mi South 8.1 mph - N/A   Mostly Cloudy
6:50 PM 53.6 °F 48.2 °F 82% 29.71 in 6.2 mi South 6.9 mph - N/A   Mostly Cloudy